Regional Weather Roundup
Issued by NWS

Home | Current Version | Previous Version | Graphics & Text | Print | Product List | Glossary On
Versions: 1 2 3 4 5 6 7 8 9 10 11 12 13 14 15 16 17 18 19 20 21 22 23 24 25 26 27 28 29 30 31 32 33 34 35 36 37 38 39 40 41 42 43 44 45 46 47 48 49 50
000
ASUS45 KBOI 240610
RWRID
WEATHER ROUNDUP FOR IDAHO
NATIONAL WEATHER SERVICE BOISE ID
1200 AM MDT FRI APR 24 2015

NOTE: "FAIR" INDICATES FEW OR NO CLOUDS BELOW 12000 FEET
WITH NO SIGNIFICANT WEATHER AND/OR OBSTRUCTIONS TO VISIBILITY

IDZ012-014-240700-
SOUTHWEST IDAHO


CITY           SKY/WX    TMP DP  RH WIND       PRES   REMARKS
BOISE          CLOUDY    57  30  35 NW8       29.69R
CALDWELL       CLOUDY    55  30  38 W15       29.71R
MOUNTAIN HOME  MOCLDY    50  26  39 SW7       29.68S
$$

IDZ016-017-240700-
SOUTHCENTRAL IDAHO


CITY           SKY/WX    TMP DP  RH WIND       PRES   REMARKS
BURLEY         CLEAR     50  37  61 SW12      29.71F
JEROME         PTCLDY    49  35  58 SE10      29.72F
TWIN FALLS     PTCLDY    50  35  56 S14       29.72S
$$

IDZ019>023-240700-
SOUTHEAST IDAHO


CITY           SKY/WX    TMP DP  RH WIND       PRES   REMARKS
IDAHO FALLS    CLEAR     51  16  24 S9        29.72F
POCATELLO      CLEAR     46  30  53 SW5       29.74S
REXBURG        PTCLDY    50  15  24 S9        29.72F
$$

IDZ006-010-011-018-031-032-240700-
CENTRAL IDAHO MOUNTAINS


CITY           SKY/WX    TMP DP  RH WIND       PRES   REMARKS
MCCALL         CLOUDY    43  32  65 CALM      29.71R
HAILEY         MOCLDY    45  27  49 NW14      29.74F
STANLEY          N/A     39  23  52 CALM      29.77S
SALMON         CLOUDY    52  30  43 CALM      29.64S
CHALLIS        CLOUDY    52  23  32 SW6       29.69S
$$

IDZ002-004-006-007-026-240700-
NORTHERN IDAHO


CITY           SKY/WX    TMP DP  RH WIND       PRES   REMARKS
LEWISTON       CLOUDY    47  41  80 SE5       29.76S
LOWELL           N/A     49  40  71 CALM      29.75S
COEUR D`ALENE  CLOUDY    45  36  70 S9        29.75S
MULLAN PASS    LGT SNOW  30  29  96 SW5       29.70F FOG     WCI  25
$$



USA.gov is the U.S. government's official web portal to all federal, state and local government web resources and services.